Tracking 27420 objects as of 10-Jun-2023
HD Live streaming from Space Station
objects crossing your sky now

STARLINK-1115

Track STARLINK-1115 now!
10-day predictions
STARLINK-1115 is classified as:


NORAD ID: 44973
Int'l Code: 2020-001BM
Perigee: 553.5 km
Apogee: 555.1 km
Inclination: 53.1 °
Period: 95.6 minutes
Semi major axis: 6925 km
RCS: Unknown
Launch date: January 7, 2020
Source: United States (US)
Launch site: AIR FORCE EASTERN TEST RANGE (AFETR)
Your satellite tracking list
Your tracking list is empty




NASA's NSSDC Master Catalog

Two Line Element Set (TLE):
1 44973U 20001BM  23161.18216564  .00001958  00000-0  15023-3 0  9993
2 44973  53.0543 131.5411 0001140  93.0848 267.0271 15.06410975189150
Source of the keplerian elements: AFSPC